Temp
18 19 20 20 22 20 20 21 20 22 24 23 23 24 26 25 27 27 18 19 21 20 19 20 20 20 20 20 20 20 19 19 19 19 18 19 18 18 18 18 17 17 17 17 17 17 17 17 17
18 19 20 18 20 20 21 20 21 22 23 22 22 23 24 25 21 18 19 19 20 19 19 20 20 20 20 20 20 20 19 19 19 19 18 18 18 18 18 17 17 17 17 16 16 16 16 17 17
19 19 19 19 18 20 21 20 21 21 21 22 23 22 22 22 20 19 20 19 19 19 19 20 20 20 20 20 20 19 19 20 19 19 19 18 18 18 18 17 18 17 16 16 16 16 16 17 17
19 18 18 20 18 19 20 20 20 21 22 22 22 23 21 19 20 19 19 19 19 19 19 20 20 20 20 20 20 19 20 20 19 19 19 18 18 18 18 18 18 18 18 17 17 17 17 17 17
18 18 18 18 19 19 19 20 19 20 21 22 22 23 21 19 20 19 18 19 19 19 19 20 20 20 20 20 19 19 20 20 19 20 19 19 18 19 19 18 18 18 17 17 17 17 17 17 17
17 17 18 18 18 18 19 19 20 19 19 21 22 21 20 18 18 18 19 19 19 19 19 19 20 20 20 20 19 19 19 19 19 20 19 19 19 19 18 17 17 17 17 17 17 17 17 17 17
17 17 17 17 18 19 20 19 19 19 20 21 20 22 20 19 18 18 19 19 18 19 19 19 19 20 20 19 19 19 19 19 19 20 19 19 19 19 18 17 17 17 18 17 17 17 17 17 17
15 17 17 17 18 19 19 19 18 19 20 19 18 19 20 19 18 18 18 19 19 19 20 19 19 20 19 19 20 20 19 19 19 19 19 18 18 18 17 16 17 17 18 18 18 18 18 18 18
15 16 17 17 18 19 18 19 18 18 20 19 19 18 17 16 17 18 18 18 18 19 19 19 19 19 19 19 20 19 19 19 19 19 19 19 18 17 17 17 17 17 17 17 17 17 17 17 18
16 16 17 19 19 18 18 19 18 19 19 19 18 19 18 18 17 17 17 18 18 18 19 19 19 19 19 19 19 20 19 19 19 19 19 18 19 18 18 18 17 17 17 17 17 17 18 18 18
14 17 18 19 19 19 18 18 18 19 19 17 17 18 18 19 17 16 17 18 18 19 19 19 19 19 19 19 19 20 19 19 19 19 18 18 18 18 18 18 17 17 17 17 17 17 17 18 18
16 15 18 19 19 18 18 18 18 18 19 17 17 17 17 18 18 17 17 17 18 19 19 19 19 19 19 19 19 19 19 19 19 18 18 18 18 18 18 18 18 18 17 17 17 17 17 17 17
15 16 16 17 18 18 19 18 18 18 17 18 17 17 17 18 17 17 17 17 18 19 19 19 19 19 19 19 19 19 19 19 19 18 18 18 18 18 18 18 18 18 17 17 17 17 17 17 17
15 16 16 16 17 17 18 17 17 19 18 18 17 17 17 17 17 17 17 17 17 19 19 19 19 19 19 19 19 19 19 19 18 18 18 18 18 18 18 18 18 18 18 18 17 17 17 17 17
15 16 15 15 16 17 18 17 17 18 17 16 17 17 17 17 18 17 17 17 17 19 19 19 19 19 19 19 19 19 19 19 18 18 18 18 18 18 18 18 18 18 18 17 17 17 17 17 17
14 15 15 15 15 16 18 18 18 16 17 18 16 17 17 18 18 19 18 18 18 18 20 20 19 19 19 19 19 19 19 19 19 19 19 18 18 18 18 18 18 18 17 17 17 17 17 17 17
13 14 14 14 15 16 16 17 18 17 17 19 20 17 18 19 18 19 20 19 18 19 19 19 19 19 20 20 20 19 19 19 19 19 19 19 19 18 18 18 18 18 18 18 18 17 17 17 17
13 13 13 14 15 15 16 16 17 16 17 18 19 18 19 18 19 19 20 20 20 19 19 19 19 19 19 19 19 19 19 19 19 19 19 19 19 19 18 18 18 18 18 18 18 17 17 17 17
13 13 14 14 14 15 16 16 17 16 15 16 17 17 18 18 18 19 20 21 20 20 19 19 19 19 19 19 19 19 19 19 19 19 19 19 19 19 18 18 18 18 18 18 18 17 17 16 17
14 13 13 15 14 15 15 15 17 16 16 17 17 20 20 18 17 16 18 20 20 19 19 19 19 19 19 18 18 18 18 18 18 18 18 18 18 17 17 17 17 17 17 17 17 17 15 15 16
12 14 12 14 14 15 14 15 16 16 16 17 17 18 19 19 17 16 16 16 17 17 18 18 18 18 18 18 17 17 17 17 17 17 17 17 17 17 17 16 16 16 16 16 16 16 15 14 15
13 13 14 13 14 14 15 15 15 17 16 16 17 18 18 17 15 15 15 15 15 16 16 17 17 17 17 17 17 17 17 17 17 17 17 17 16 17 16 16 16 16 15 16 16 16 15 15 14
14 13 13 12 12 13 13 14 14 15 16 17 17 18 17 17 16 15 15 16 15 14 14 15 16 16 16 17 17 17 16 16 16 16 16 16 15 16 16 15 15 15 15 15 14 14 15 15 14
12 12 12 11 12 13 13 14 14 15 15 16 16 18 18 17 17 16 15 15 14 13 13 14 14 15 15 15 15 15 15 14 14 14 14 14 14 14 14 14 14 14 14 13 13 13 13 13 14
13 13 12 13 13 12 10 11 15 15 16 16 16 16 16 15 13 13 12 12 11 12 13 13 14 13 13 14 14 14 14 13 13 13 13 13 13 13 13 13 13 13 13 13 12 12 13 13 13
14 14 11 12 12 12 10 12 15 14 14 13 13 14 13 14 12 12 12 11 10 11 12 12 12 12 12 12 12 12 13 12 12 12 12 11 11 11 11 11 12 12 12 12 12 12 13 13 13
13 12 11 9 7 10 12 11 13 13 14 14 14 13 13 12 11 11 10 10 10 10 11 12 11 11 11 11 11 11 11 11 11 10 10 10 10 10 10 10 10 10 11 11 11 11 12 12 12
12 11 12 9 10 12 11 11 14 15 16 14 13 13 13 11 10 9 9 9 10 10 10 10 10 11 11 10 10 10 9 9 9 9 9 9 9 9 9 9 9 9 9 10 9 9 10 11 11
11 10 10 11 10 12 12 13 11 13 14 13 12 11 11 10 9 9 8 8 8 9 9 9 9 9 9 9 9 8 8 8 8 8 8 8 8 8 8 8 8 8 8 8 8 8 8 8 9
12 11 11 11 10 8 9 12 13 12 12 11 12 11 11 10 9 9 7 7 7 7 8 8 8 8 8 7 7 7 7 7 7 7 7 7 7 7 7 6 7 7 7 7 7 7 7 7 7
Height
809 809 809 810 826 832 839 832 824 820 814 807 807 809 806 804 809 820 808 810 813 819 824 828 832 835 837 839 841 843 845 847 849 850 850 851 852 854 854 855 855 856 856 857 858 858 859 860 860
808 809 810 816 832 839 835 827 825 819 808 809 808 806 807 808 806 808 809 810 814 819 825 828 832 835 838 840 842 844 846 848 849 851 851 852 853 855 856 856 857 857 857 858 859 859 861 862 862
808 810 813 819 835 836 831 824 822 816 811 808 807 807 808 810 808 809 807 810 815 820 825 829 832 836 839 841 843 845 847 849 851 852 852 853 854 856 858 858 858 858 859 859 860 861 863 864 865
807 811 816 820 832 825 822 821 819 814 808 809 808 810 809 810 810 808 809 812 816 820 825 830 833 836 840 842 844 846 849 850 852 852 853 853 855 857 858 859 859 859 860 861 862 863 864 866 867
807 812 823 826 825 821 820 817 818 817 814 811 808 811 811 811 810 810 811 813 817 822 826 831 834 836 840 844 845 847 850 851 852 853 854 855 857 859 859 860 860 861 862 863 864 865 866 867 868
811 813 824 825 823 821 818 815 815 818 817 812 810 812 814 813 812 813 814 817 821 822 827 832 835 838 841 844 847 849 851 851 852 854 856 858 859 860 861 861 862 862 863 865 866 867 868 868 869
808 816 821 823 820 821 816 813 816 819 819 817 815 814 815 814 813 815 815 818 823 825 829 832 836 839 842 844 847 849 851 852 853 854 857 859 860 861 862 863 863 863 864 866 867 868 869 869 869
805 812 821 819 819 819 813 814 816 816 820 817 817 823 820 819 818 818 819 821 824 826 829 833 836 839 843 845 847 849 851 853 854 856 857 859 860 861 863 863 864 864 865 867 868 869 869 869 869
804 814 817 817 816 815 813 814 818 817 818 820 823 825 825 819 820 820 823 824 826 828 831 834 836 840 843 845 847 850 852 854 855 856 858 859 860 862 863 863 864 865 866 867 868 869 869 869 869
799 813 809 803 806 813 814 815 819 819 820 824 823 822 821 820 821 822 823 825 827 828 831 835 836 839 842 844 847 849 852 854 855 856 857 859 860 861 862 863 864 865 866 867 868 869 869 869 869
803 802 801 801 805 808 815 817 817 819 823 825 825 824 822 820 822 824 824 823 824 828 830 833 836 839 841 843 846 848 850 852 854 856 857 859 860 861 862 862 863 864 866 867 867 868 869 869 869
800 804 800 803 802 812 815 815 818 820 818 820 820 823 823 822 821 824 825 824 824 826 830 833 835 838 840 842 845 847 849 851 853 854 856 857 859 860 860 861 862 864 865 865 866 867 868 868 869
799 800 802 806 807 809 810 816 816 816 815 817 819 819 822 821 821 823 824 825 825 825 827 830 833 836 839 841 844 846 848 850 852 853 855 856 857 858 859 860 861 862 863 864 865 866 866 867 867
796 798 803 805 805 807 811 814 816 808 813 815 817 819 821 822 821 820 821 822 823 824 826 829 831 834 838 840 842 844 846 848 850 851 853 854 856 856 857 858 859 861 861 862 863 864 864 864 864
794 801 806 807 807 809 809 817 809 810 813 815 817 817 818 819 819 819 820 820 821 821 825 827 830 832 835 838 840 842 844 846 848 849 851 852 853 854 855 857 858 859 860 860 861 861 861 861 861
799 803 808 806 808 811 808 806 801 809 809 810 815 816 815 814 817 816 816 817 820 823 823 826 828 830 833 835 837 839 841 843 845 846 848 849 850 851 852 853 854 856 857 857 858 858 857 858 858
803 804 808 813 807 809 811 812 802 805 811 809 806 812 813 812 811 813 813 814 817 819 821 822 825 828 830 833 835 837 839 840 842 843 844 846 847 848 849 850 851 853 853 853 854 854 854 854 853
797 807 810 812 810 812 815 812 806 808 806 804 803 805 808 809 807 808 810 812 815 816 818 820 822 824 827 830 832 834 836 837 838 839 841 842 844 845 846 846 848 849 849 848 849 849 849 849 849
794 803 807 808 807 811 814 813 808 805 809 806 801 803 805 806 803 805 806 808 811 813 815 817 819 821 824 826 828 830 830 832 834 835 837 838 840 841 842 842 843 843 843 843 844 845 845 844 844
791 806 810 807 809 810 814 812 803 806 807 802 801 794 796 802 801 802 803 805 808 810 811 812 814 817 820 822 824 826 828 829 831 832 833 835 836 837 838 838 838 839 838 838 839 839 840 839 839
802 798 811 809 812 812 816 815 808 804 803 801 798 794 791 794 797 800 802 805 807 809 808 809 811 814 816 819 822 824 825 827 828 829 829 830 830 831 831 832 833 833 833 833 833 834 834 834 834
799 800 802 809 812 820 815 816 805 797 800 797 791 788 791 793 798 799 800 802 805 807 809 808 810 812 814 816 818 821 823 824 825 826 826 826 827 827 827 828 828 828 828 828 828 829 829 829 829
798 799 805 813 819 820 821 819 803 798 796 786 790 790 790 792 794 797 798 798 803 807 808 809 809 812 814 815 817 819 820 821 822 823 823 824 824 824 824 824 824 824 823 823 823 824 823 824 824
801 806 813 823 823 826 820 818 805 797 792 790 786 781 782 783 782 787 792 795 799 805 807 808 809 811 813 815 816 818 819 820 821 822 822 822 822 822 822 821 821 820 820 819 819 819 818 819 819
797 804 820 821 823 822 831 825 796 793 786 785 782 780 780 781 783 786 789 793 795 799 804 806 808 809 812 814 815 817 818 818 819 819 819 819 819 819 819 818 818 817 817 816 815 814 814 813 814
798 799 818 819 825 820 833 815 792 785 784 785 783 781 782 780 782 781 783 787 791 793 799 803 806 808 810 812 814 815 816 816 816 816 816 817 817 817 816 816 815 814 813 812 812 811 810 810 809
802 806 814 835 853 838 816 811 795 786 783 780 779 779 776 776 778 778 780 785 788 794 798 802 804 805 808 810 812 814 814 815 815 815 815 815 815 814 814 813 812 811 810 809 809 810 809 808 808
799 806 811 831 836 822 816 818 794 783 781 781 780 776 775 775 775 778 780 785 789 794 798 801 804 805 807 808 810 813 812 812 813 814 814 814 813 812 811 811 809 809 808 807 807 808 808 808 808
806 813 816 814 824 815 815 798 791 784 780 783 780 778 774 775 775 778 782 787 792 793 796 800 803 805 808 807 809 811 811 810 811 812 812 812 812 810 809 810 809 808 807 807 807 807 807 807 807
799 804 807 813 825 839 833 804 780 782 782 786 779 777 774 776 778 781 785 788 793 796 797 800 802 805 807 807 807 810 810 810 809 811 811 809 810 809 809 809 808 808 807 807 807 807 808 808 808
Wind_Speed
6 5 2 3 2 2 2 4 1 3 2 1 2 2 3 2 4 3 3 15 24 29 24 23 21 20 18 16 16 14 13 11 10 8 8 10 14 14 13 13 13 12 13 12 12 12 13 13 14
3 1 1 2 3 3 3 2 1 2 5 3 2 1 1 2 1 4 14 13 25 27 24 22 21 19 18 17 16 15 14 11 8 7 9 11 15 13 12 12 12 13 13 12 12 12 12 12 11
1 1 1 4 3 5 3 3 2 4 7 4 1 2 2 1 1 12 6 21 26 25 23 23 21 19 18 17 17 15 14 9 7 6 9 12 13 13 12 10 11 12 13 12 12 12 12 11 10
4 2 2 3 6 4 4 1 2 7 2 3 1 2 1 3 3 3 16 23 26 25 24 23 21 20 18 17 17 16 12 9 6 8 11 11 13 12 11 6 10 10 12 12 12 12 11 10 9
5 1 2 3 5 4 3 1 1 4 4 3 1 2 2 5 2 10 20 24 23 24 24 22 20 20 18 18 17 15 12 8 8 11 12 12 13 13 9 6 8 9 10 10 10 10 9 8 8
2 0 3 6 5 2 2 1 3 4 4 4 2 2 1 1 5 15 19 23 19 24 22 20 20 19 19 18 17 13 10 9 7 13 12 12 12 11 8 6 7 8 8 8 8 8 7 6 5
6 3 3 5 8 4 3 2 4 3 5 5 5 1 2 2 7 15 21 22 20 23 22 20 19 18 18 18 17 12 9 8 7 9 15 13 11 9 7 4 5 6 6 6 6 6 5 4 3
4 2 5 3 8 5 3 2 4 5 4 6 5 6 3 7 8 14 18 19 21 23 22 20 20 19 17 17 15 10 8 7 5 6 11 13 11 10 8 7 4 4 4 5 5 4 3 3 2
4 2 8 8 7 5 3 3 2 1 5 8 5 6 9 4 10 13 15 17 20 20 20 20 20 19 18 17 15 12 9 7 5 5 6 8 9 10 9 7 6 4 4 4 3 3 2 3 3
5 7 8 6 5 6 3 3 1 3 3 3 4 15 19 6 2 9 13 12 14 17 19 18 18 19 18 17 17 13 10 9 7 5 4 5 5 7 7 7 6 6 5 4 3 3 3 3 3
5 17 15 10 7 7 5 2 1 2 2 3 4 11 16 7 4 5 11 18 21 20 20 20 18 20 18 18 17 16 13 12 9 8 6 5 5 6 7 7 7 8 8 7 6 5 5 4 4
9 5 12 1 7 6 7 4 2 3 3 6 3 4 8 10 7 9 10 17 19 21 20 18 18 19 19 18 17 18 16 14 12 11 10 9 7 7 7 7 8 8 9 8 8 8 8 7 7
5 5 11 10 7 8 6 4 5 11 5 1 3 7 9 12 8 11 14 15 20 22 22 20 19 20 20 18 17 16 16 15 13 13 13 12 11 9 7 8 9 10 10 10 10 10 10 10 10
8 5 7 9 8 7 7 1 1 7 5 4 5 6 6 8 9 8 14 16 22 22 22 20 20 20 20 18 17 16 16 15 14 14 15 15 14 12 11 10 10 12 12 11 11 11 11 11 11
4 7 4 3 8 5 4 4 16 4 2 6 8 7 8 9 10 10 13 16 22 23 21 20 20 20 21 19 17 16 16 16 16 16 15 16 15 15 15 14 13 13 13 13 14 15 15 14 14
5 5 5 7 7 4 11 21 16 5 2 10 7 8 8 12 9 9 12 17 19 22 22 19 20 20 20 19 18 17 16 16 16 16 15 15 15 15 17 18 17 15 15 16 17 17 18 19 18
2 6 6 3 10 5 12 3 6 9 9 14 14 9 8 12 13 11 7 12 17 21 21 20 21 20 19 19 19 18 18 18 17 16 16 15 16 16 17 19 19 17 18 19 19 20 20 20 20
10 7 4 5 9 8 12 3 1 5 10 14 8 10 11 12 14 13 6 7 12 17 21 19 18 18 16 15 18 20 20 21 21 21 20 18 19 19 20 22 23 22 22 23 23 23 22 23 22
9 9 8 3 8 7 9 9 4 6 7 7 9 11 9 11 13 12 10 10 11 14 18 18 19 19 19 18 17 18 22 22 22 22 22 21 21 20 20 22 23 24 25 25 24 23 23 23 23
11 8 3 2 5 5 6 10 11 8 11 12 13 18 17 9 5 6 10 11 12 15 16 18 19 18 18 19 18 17 15 18 22 20 20 21 22 24 25 25 25 25 24 24 24 24 18 19 21
3 11 5 5 5 1 5 6 9 7 8 11 12 13 12 10 8 5 9 11 12 13 13 13 13 16 18 20 19 16 14 13 12 12 12 13 16 19 21 22 23 24 24 25 25 25 23 16 17
3 7 7 9 4 3 2 4 8 13 9 14 19 20 15 9 3 4 9 12 13 11 11 12 12 12 11 11 12 12 11 9 8 7 9 10 12 12 12 13 15 17 18 19 21 21 22 20 16
3 6 5 4 5 3 1 2 4 4 15 20 12 14 11 11 10 9 13 19 15 13 12 12 13 11 9 8 8 7 7 6 6 6 6 7 7 8 9 11 13 14 14 15 17 19 19 21 21
8 6 7 4 3 2 5 6 3 4 6 5 10 15 14 16 13 12 16 18 18 15 14 13 13 11 9 7 6 5 4 4 4 5 6 6 6 5 5 5 7 8 9 10 13 15 17 19 20
4 6 3 2 2 4 1 3 8 5 5 6 8 9 11 9 6 9 10 17 22 21 18 16 14 12 9 6 4 3 2 3 5 6 7 7 6 6 8 9 9 9 9 9 8 10 14 16 19
3 4 4 5 4 3 1 6 4 6 5 5 6 7 5 5 6 9 15 20 19 26 22 18 15 13 9 6 4 3 4 5 6 6 6 5 5 6 8 9 10 11 11 10 8 7 9 10 13
3 2 4 6 2 1 3 4 9 6 7 4 7 6 8 8 7 9 13 17 22 21 20 17 15 12 9 6 4 4 4 5 6 6 6 5 4 5 7 8 8 8 8 7 5 5 5 4 4
3 5 2 2 3 4 2 3 5 3 2 6 8 10 7 6 4 7 12 16 21 21 18 15 11 9 7 5 3 4 3 4 5 6 6 4 3 3 4 4 4 4 3 3 3 4 4 5 3
3 1 4 3 3 3 1 4 6 5 3 6 9 9 8 5 6 8 11 16 17 17 17 14 11 9 6 5 5 5 5 5 5 5 5 4 3 2 2 2 1 2 2 2 3 4 5 5 4
2 3 4 4 4 0 1 6 3 5 6 4 8 7 3 3 7 8 13 16 15 15 14 12 10 8 6 5 5 6 6 6 7 7 6 4 3 2 1 0 1 2 3 5 6 7 8 8 7
Wind_Direction
303 292 244 58 116 76 191 240 302 292 242 22 324 237 206 104 166 200 160 157 165 164 165 166 167 165 160 158 155 147 142 135 125 115 118 115 126 119 109 101 93 94 97 101 101 99 98 96 92
296 304 41 95 114 150 223 241 177 243 292 322 224 321 179 147 78 123 134 168 165 161 164 164 166 164 161 162 153 148 144 138 123 115 124 125 132 126 117 103 93 94 99 99 100 102 103 101 94
219 223 141 117 130 181 183 163 282 272 276 238 0 71 4 355 36 156 161 155 158 160 165 166 166 165 167 162 155 150 146 133 121 125 132 130 137 132 122 109 96 97 99 96 97 103 108 102 94
116 81 56 153 172 213 149 222 325 333 71 181 176 142 85 2 177 220 153 155 157 160 165 165 169 168 167 162 158 153 145 131 121 129 128 132 141 138 134 120 102 97 100 98 101 109 112 105 95
99 87 137 146 179 157 169 218 322 358 338 334 222 126 78 7 293 155 153 155 157 161 163 167 171 168 166 163 162 154 146 129 115 129 111 130 135 147 138 136 109 100 106 106 107 114 117 111 96
114 209 166 178 173 155 199 175 137 29 347 342 55 83 24 331 128 154 158 157 161 161 164 165 171 169 166 164 166 158 144 122 113 140 130 133 142 147 148 137 120 109 115 115 113 115 123 116 102
156 162 176 167 161 146 169 146 91 85 27 13 322 323 4 6 158 160 164 161 163 165 166 166 169 170 169 168 167 161 148 122 111 141 155 157 161 166 171 161 134 121 125 133 130 131 133 135 125
99 155 161 175 172 156 149 99 122 69 37 317 347 21 14 354 170 162 163 166 168 168 171 172 171 172 173 175 175 166 160 141 121 136 170 169 168 171 184 171 165 144 146 149 151 153 160 167 185
137 139 191 178 159 135 112 107 355 86 92 63 75 38 320 346 162 153 157 164 170 173 178 178 176 179 180 180 174 179 176 168 152 146 161 177 192 195 195 199 189 182 173 171 168 178 182 198 198
184 213 216 175 151 106 83 79 91 139 71 49 21 9 4 27 153 163 165 165 174 177 182 188 188 187 184 183 183 189 191 194 190 186 180 181 192 199 204 204 200 195 192 199 203 221 229 235 236
186 208 212 240 216 115 125 80 82 73 95 152 15 354 0 347 248 235 191 180 184 190 191 193 193 190 189 187 189 194 201 209 205 209 207 201 201 204 206 206 205 207 208 217 223 241 254 258 260
176 180 191 126 220 139 226 159 260 190 225 147 14 23 2 340 252 237 227 197 188 190 193 196 195 196 191 192 196 199 203 212 217 222 224 224 223 225 224 223 221 221 225 230 239 251 261 271 273
156 173 163 221 146 145 156 154 232 248 181 181 33 32 360 346 286 236 237 228 200 196 197 200 199 200 198 198 207 210 212 223 229 231 234 235 237 240 245 239 238 237 238 245 254 261 268 274 276
163 135 175 182 168 151 158 182 290 240 143 147 12 351 345 326 314 256 240 230 218 206 205 204 204 203 207 210 217 221 222 228 232 237 241 244 245 247 248 250 248 246 248 252 258 265 274 278 277
116 135 122 180 165 180 126 259 240 292 9 335 320 326 324 310 316 258 253 241 223 212 211 211 208 206 210 216 220 223 229 233 238 244 247 248 250 251 250 252 253 255 257 261 263 267 273 277 280
93 119 152 168 159 166 175 236 232 170 341 288 279 303 312 300 288 290 259 246 234 225 219 218 218 215 215 219 222 225 228 234 240 246 251 250 249 251 250 252 256 259 261 263 266 270 273 275 276
222 171 158 137 187 147 199 254 192 163 188 249 253 257 281 289 292 291 268 244 235 231 230 225 222 223 224 228 231 233 235 238 243 247 251 254 254 253 255 257 261 264 265 266 269 270 270 272 274
167 128 119 145 192 185 202 302 183 196 190 220 246 246 262 273 272 273 272 260 247 234 233 233 226 225 226 231 237 238 242 246 247 250 252 254 258 262 263 265 266 266 266 268 269 268 270 270 275
114 122 145 174 170 179 205 221 291 207 225 239 239 231 246 253 269 269 277 283 261 232 224 221 221 224 225 225 226 232 237 243 246 249 252 255 258 259 262 266 269 266 264 267 269 270 269 272 272
136 118 137 89 150 151 186 229 246 212 220 212 218 244 231 238 227 248 265 254 254 240 227 222 220 218 217 221 227 230 242 248 253 258 258 260 260 261 263 263 265 265 266 267 266 264 261 265 267
69 167 159 140 107 61 129 266 236 229 226 227 241 244 246 223 223 229 240 240 231 232 221 213 210 210 216 223 227 229 234 243 249 252 255 254 256 258 259 261 262 264 264 263 266 266 259 252 262
114 161 149 136 115 178 201 264 247 221 217 223 227 242 243 259 220 234 228 225 224 212 197 185 180 180 184 191 202 215 225 231 244 250 254 257 261 262 263 261 258 258 262 264 265 266 263 256 243
130 121 117 98 94 107 302 265 256 189 224 231 237 236 241 242 214 217 216 215 203 197 184 171 165 165 169 179 188 196 201 215 237 255 267 274 272 267 264 262 262 266 266 265 263 265 261 260 253
139 89 57 58 95 239 211 205 269 206 219 241 244 238 222 232 229 216 215 197 179 182 176 167 162 154 153 157 163 172 179 203 234 254 265 270 277 277 276 285 284 286 286 279 273 268 264 263 264
111 104 96 136 208 223 340 236 260 251 209 216 232 239 240 228 206 194 180 179 174 173 174 168 162 151 152 156 158 175 222 256 269 275 281 284 280 272 279 288 289 287 287 293 288 275 270 262 258
164 156 147 172 190 223 91 230 248 237 269 288 280 268 293 261 227 203 191 181 175 170 170 168 161 153 154 156 172 213 249 261 264 266 266 266 276 288 295 296 292 288 286 286 287 287 274 266 254
183 121 141 107 61 40 234 291 279 276 297 294 289 282 257 245 227 209 173 170 168 167 166 166 162 157 158 165 187 225 242 247 242 235 233 235 257 283 297 300 299 291 286 281 269 255 261 243 221
115 154 92 24 134 242 267 273 244 243 303 303 303 299 283 263 199 166 156 155 162 163 163 163 163 162 170 179 206 234 226 213 214 216 210 217 244 285 304 307 313 314 304 284 227 215 224 233 235
87 94 56 116 145 198 294 257 218 227 236 299 298 294 292 222 182 149 138 152 158 157 158 160 165 170 182 189 208 223 218 203 196 203 208 217 255 285 296 302 341 30 57 94 117 141 170 205 203
123 167 165 157 225 70 132 265 201 228 280 293 307 300 306 193 156 144 146 151 159 162 162 167 170 184 197 205 206 214 214 205 200 205 211 211 238 256 258 223 108 93 100 117 119 116 112 110 110